EW9394 Weather Reports


time (UTC)temp
F
wind
direction
speed
knots
gust
knots
rain 1hr
in
rain 24hr
in
rain mn
in
humidity
%
barometer
mb
20260504004522 76 197 3.5 5.2 0.00 0.00 0.00 40 1017.0
20260504004019 77 179 1.7 2.6 0.00 0.00 0.00 40 1016.8
20260504003515 77 143 4.3 6.1 0.00 0.00 0.00 40 1016.9
20260504003012 78 174 2.6 4.3 0.00 0.00 0.00 39 1016.8
20260504002509 78 188 1.7 1.7 0.00 0.00 0.00 39 1017.0
20260504002006 78 167 1.7 1.7 0.00 0.00 0.00 39 1016.8
20260504001503 78 144 3.5 4.3 0.00 0.00 0.00 39 1017.0
20260504000959 78 174 2.6 4.3 0.00 0.00 0.00 39 1017.2
20260504000457 78 163 5.2 7.0 0.00 0.00 0.00 39 1017.0
20260503235954 79 211 3.5 5.2 0.00 0.00 0.00 38 1017.0
20260503235452 79 192 3.5 4.3 0.00 0.00 0.00 37 1016.9
20260503234949 79 156 6.1 7.8 0.00 0.00 0.00 37 1017.0
20260503234446 80 184 5.2 6.1 0.00 0.00 0.00 37 1017.1
20260503233944 80 190 1.7 2.6 0.00 0.00 0.00 37 1017.0
20260503233440 79 201 1.7 2.6 0.00 0.00 0.00 37 1017.1
20260503232937 80 189 7.0 8.7 0.00 0.00 0.00 37 1017.5
20260503232434 80 190 0.0 0.9 0.00 0.00 0.00 38 1017.2
20260503231932 80 210 3.5 5.2 0.00 0.00 0.00 37 1017.3
20260503231429 80 193 0.9 1.7 0.00 0.00 0.00 37 1017.4
20260503230925 80 196 7.0 11.3 0.00 0.00 0.00 35 1017.2
20260503230422 81 213 7.0 7.8 0.00 0.00 0.00 35 1017.2
20260503225920 81 195 4.3 6.1 0.00 0.00 0.00 36 1017.2
20260503225416 82 152 6.1 11.3 0.00 0.00 0.00 36 1017.2
20260503224912 82 155 3.5 6.1 0.00 0.00 0.00 35 1017.5
20260503224409 82 180 2.6 4.3 0.00 0.00 0.00 35 1017.1
20260503223907 82 201 1.7 4.3 0.00 0.00 0.00 34 1017.3
20260503223405 82 190 3.5 5.2 0.00 0.00 0.00 33 1017.5
20260503222859 81 204 2.6 4.3 0.00 0.00 0.00 33 1017.6
20260503222358 82 176 5.2 8.7 0.00 0.00 0.00 33 1017.5
20260503221856 81 225 5.2 8.7 0.00 0.00 0.00 34 1017.6
20260503221355 82 207 1.7 2.6 0.00 0.00 0.00 34 1017.7
20260503220850 82 189 1.7 1.7 0.00 0.00 0.00 34 1017.7
20260503220347 83 200 1.7 2.6 0.00 0.00 0.00 34 1017.7
20260503215844 83 160 3.5 5.2 0.00 0.00 0.00 33 1017.8
20260503215341 83 183 7.0 7.8 0.00 0.00 0.00 33 1017.6
20260503214839 82 153 0.0 0.9 0.00 0.00 0.00 35 1017.8
20260503214336 83 187 5.2 7.8 0.00 0.00 0.00 34 1018.1
20260503213833 83 221 3.5 6.1 0.00 0.00 0.00 34 1018.1
20260503213331 82 123 2.6 2.6 0.00 0.00 0.00 33 1018.1
20260503212827 82 201 5.2 8.7 0.00 0.00 0.00 34 1018.1
20260503212326 84 197 2.6 2.6 0.00 0.00 0.00 33 1018.1
20260503211823 84 209 0.9 0.9 0.00 0.00 0.00 34 1018.5
20260503211319 84 222 1.7 1.7 0.00 0.00 0.00 35 1018.3
20260503210819 83 180 6.1 7.0 0.00 0.00 0.00 32 1018.3
20260503210317 83 146 5.2 6.1 0.00 0.00 0.00 32 1018.5
20260503205812 83 171 2.6 2.6 0.00 0.00 0.00 33 1018.6
20260503205309 83 145 0.9 1.7 0.00 0.00 0.00 33 1018.8
20260503204805 84 178 1.7 2.6 0.00 0.00 0.00 33 1018.9
20260503204303 84 174 2.6 2.6 0.00 0.00 0.00 31 1018.8
20260503203800 83 174 2.6 2.6 0.00 0.00 0.00 33 1018.9
20260503203257 84 166 1.7 4.3 0.00 0.00 0.00 32 1019.2
20260503202754 84 170 2.6 5.2 0.00 0.00 0.00 31 1019.2
20260503202252 84 222 1.7 1.7 0.00 0.00 0.00 33 1019.4
20260503201750 84 187 1.7 1.7 0.00 0.00 0.00 34 1019.3
20260503201247 84 144 2.6 4.3 0.00 0.00 0.00 33 1019.5
20260503200744 84 177 0.9 2.6 0.00 0.00 0.00 35 1019.6
20260503200240 83 218 0.9 1.7 0.00 0.00 0.00 34 1019.7
20260503195737 84 254 2.6 5.2 0.00 0.00 0.00 34 1019.8
20260503195233 83 115 2.6 4.3 0.00 0.00 0.00 34 1019.8
20260503194732 84 232 0.9 1.7 0.00 0.00 0.00 34 1020.1
20260503194227 83 204 0.9 1.7 0.00 0.00 0.00 33 1019.9
20260503193723 83 213 0.0 0.9 0.00 0.00 0.00 36 1020.1
20260503193219 83 153 2.6 5.2 0.00 0.00 0.00 34 1020.3
20260503192715 82 134 1.7 2.6 0.00 0.00 0.00 34 1020.2
20260503192210 83 186 1.7 1.7 0.00 0.00 0.00 35 1020.5
20260503191708 83 230 0.9 1.7 0.00 0.00 0.00 36 1020.5
20260503191205 83 204 1.7 2.6 0.00 0.00 0.00 37 1020.5
20260503190701 83 230 0.9 1.7 0.00 0.00 0.00 37 1020.5
20260503190158 82 206 2.6 5.2 0.00 0.00 0.00 38 1020.5
20260503185655 84 201 0.9 0.9 0.00 0.00 0.00 37 1020.6
20260503185150 83 243 1.7 1.7 0.00 0.00 0.00 37 1020.6
20260503184645 82 177 3.5 4.3 0.00 0.00 0.00 39 1020.7
20260503184142 83 181 2.6 5.2 0.00 0.00 0.00 36 1020.7
20260503183638 83 199 2.6 2.6 0.00 0.00 0.00 36 1020.8
20260503183136 83 193 3.5 5.2 0.00 0.00 0.00 36 1020.8
20260503182634 82 181 0.9 1.7 0.00 0.00 0.00 37 1021.2
20260503182132 83 202 1.7 1.7 0.00 0.00 0.00 38 1021.2
20260503181629 83 251 3.5 4.3 0.00 0.00 0.00 37 1021.4
20260503181125 82 268 0.9 1.7 0.00 0.00 0.00 38 1021.3
20260503180622 82 198 3.5 6.1 0.00 0.00 0.00 39 1021.5
20260503180120 81 219 3.5 5.2 0.00 0.00 0.00 39 1021.6
20260503175617 82 161 3.5 4.3 0.00 0.00 0.00 38 1021.7
20260503175114 80 199 3.5 5.2 0.00 0.00 0.00 40 1021.7
20260503174611 81 272 2.6 2.6 0.00 0.00 0.00 39 1022.0
20260503174108 81 225 2.6 4.3 0.00 0.00 0.00 43 1022.0
20260503173603 82 190 0.9 1.7 0.00 0.00 0.00 40 1022.1
20260503173059 81 122 2.6 4.3 0.00 0.00 0.00 38 1022.2
20260503172556 81 200 0.9 0.9 0.00 0.00 0.00 42 1022.0
20260503172054 81 171 0.9 1.7 0.00 0.00 0.00 43 1022.2
20260503171550 80 162 2.6 6.1 0.00 0.00 0.00 43 1022.5
20260503171048 80 189 2.6 2.6 0.00 0.00 0.00 44 1022.4
20260503170544 80 219 1.7 1.7 0.00 0.00 0.00 45 1022.3
20260503150937 74 259 0.9 1.7 0.00 0.00 0.00 50 1022.6
20260503150433 73 169 1.7 1.7 0.00 0.00 0.00 50 1022.7
20260503131326 62 198 0.0 0.9 0.00 0.00 0.00 70 1022.5
20260503130824 62 187 0.0 0.9 0.00 0.00 0.00 70 1022.7
20260503130321 62 196 0.9 0.9 0.00 0.00 0.00 72 1022.5
20260503110714 53 206 0.0 0.0 0.00 0.00 0.00 83 1021.8
20260503110212 53 206 0.0 0.0 0.00 0.00 0.00 83 1021.9
20260503100132 55 206 0.0 0.0 0.00 0.00 0.00 78 1021.8
20260503081521 60 197 0.0 0.0 0.00 0.00 0.00 64 1021.6
20260503081019 60 198 0.0 0.9 0.00 0.00 0.00 64 1021.6
20260503080515 61 195 0.0 0.0 0.00 0.00 0.00 64 1021.7
20260503072449 60 186 0.0 0.0 0.00 0.00 0.00 64 1021.5
20260503071945 61 197 0.0 0.0 0.00 0.00 0.00 64 1021.7
20260503071442 61 196 0.0 0.0 0.00 0.00 0.00 63 1021.8
20260503070938 61 197 0.9 0.9 0.00 0.00 0.00 62 1021.6
20260503070436 61 199 0.9 0.9 0.00 0.00 0.00 62 1021.7
20260503054849 63 183 0.9 1.7 0.00 0.00 0.00 57 1021.6
20260503054345 63 191 0.9 1.7 0.00 0.00 0.00 57 1021.6
20260503053843 64 191 0.0 0.9 0.00 0.00 0.00 57 1021.7
20260503053341 64 196 0.9 0.9 0.00 0.00 0.00 57 1021.6
20260503052837 64 192 0.9 0.9 0.00 0.00 0.00 57 1021.8
20260503052334 64 183 0.9 0.9 0.00 0.00 0.00 57 1021.4
20260503051830 64 195 0.0 0.9 0.00 0.00 0.00 57 1021.4
20260503051327 64 191 0.9 0.9 0.00 0.00 0.00 56 1021.4
20260503050824 64 185 1.7 1.7 0.00 0.00 0.00 56 1021.4
20260503050320 64 191 0.9 1.7 0.00 0.00 0.00 56 1021.5
20260503045818 64 186 0.9 0.9 0.00 0.00 0.00 56 1021.4
20260503045315 64 192 0.9 0.9 0.00 0.00 0.00 55 1021.6
20260503044811 65 193 0.9 0.9 0.00 0.00 0.00 55 1021.6
20260503044308 65 184 0.9 0.9 0.00 0.00 0.00 54 1021.5
20260503043806 65 185 0.9 1.7 0.00 0.00 0.00 54 1021.5
20260503043303 66 193 0.9 0.9 0.00 0.00 0.00 53 1021.6
20260503042758 66 192 0.9 0.9 0.00 0.00 0.00 52 1021.7
20260503042255 66 187 1.7 1.7 0.00 0.00 0.00 52 1021.5
20260503041751 66 191 0.9 0.9 0.00 0.00 0.00 52 1021.5
20260503041249 66 191 0.9 0.9 0.00 0.00 0.00 51 1021.5
20260503040747 66 185 0.9 0.9 0.00 0.00 0.00 51 1021.4
20260503040244 66 187 0.9 0.9 0.00 0.00 0.00 51 1021.4
20260503035740 66 202 0.9 0.9 0.00 0.00 0.00 52 1021.5
20260503035238 66 185 0.0 1.7 0.00 0.00 0.00 52 1021.3
20260503034735 66 197 0.9 0.9 0.00 0.00 0.00 52 1021.5
20260503034232 66 197 0.9 0.9 0.00 0.00 0.00 52 1021.4
20260503033730 66 191 0.0 0.0 0.00 0.00 0.00 53 1021.5
20260503033227 65 197 0.0 0.0 0.00 0.00 0.00 53 1021.3
20260503032725 66 197 0.0 0.0 0.00 0.00 0.00 53 1021.2
20260503032224 67 197 0.0 0.0 0.00 0.00 0.00 51 1021.0
20260503031720 67 198 0.9 0.9 0.00 0.00 0.00 50 1021.3
20260503031218 67 198 0.9 1.7 0.00 0.00 0.00 50 1021.3
20260503030714 67 200 0.9 0.9 0.00 0.00 0.00 50 1021.2
20260503030211 67 202 0.9 0.9 0.00 0.00 0.00 50 1021.0
20260503025708 66 208 0.9 0.9 0.00 0.00 0.00 51 1021.2
20260503025205 67 210 0.0 0.0 0.00 0.00 0.00 51 1021.0
20260503024701 67 211 0.0 0.0 0.00 0.00 0.00 50 1021.3
20260503024159 67 212 0.0 0.9 0.00 0.00 0.00 50 1021.0
20260503023656 67 216 0.0 0.9 0.00 0.00 0.00 51 1021.1
20260503023152 67 216 0.0 0.0 0.00 0.00 0.00 51 1021.0
20260503022649 68 216 0.0 0.0 0.00 0.00 0.00 49 1020.9
20260503022148 68 220 0.0 0.0 0.00 0.00 0.00 48 1021.0
20260503021645 68 220 0.0 0.9 0.00 0.00 0.00 47 1021.0
20260503021142 68 224 0.0 0.0 0.00 0.00 0.00 47 1020.8
20260503020639 69 224 0.0 0.0 0.00 0.00 0.00 46 1020.7
20260503020137 69 225 0.0 0.0 0.00 0.00 0.00 46 1020.8
20260503015633 68 225 0.9 0.9 0.00 0.00 0.00 48 1020.6
20260503015130 68 226 0.0 0.0 0.00 0.00 0.00 49 1020.7
20260503014626 68 226 0.0 0.0 0.00 0.00 0.00 49 1020.4
20260503014124 68 227 0.0 0.0 0.00 0.00 0.00 48 1020.5
20260503013621 68 227 0.0 0.0 0.00 0.00 0.00 48 1020.6
20260503013119 68 227 0.0 0.0 0.00 0.00 0.00 48 1020.4
20260503012616 69 228 0.0 0.0 0.00 0.00 0.00 45 1020.5
20260503012113 70 228 0.0 0.0 0.00 0.00 0.00 45 1020.5
20260503011609 71 228 0.0 0.0 0.00 0.00 0.00 44 1020.4
20260503011107 71 231 0.0 0.0 0.00 0.00 0.00 43 1020.2
20260503010602 72 231 0.0 0.0 0.00 0.00 0.00 42 1020.5
20260503010100 72 232 0.0 0.0 0.00 0.00 0.00 42 1020.6
20260503005557 74 237 0.0 0.0 0.00 0.00 0.00 40 1020.4
20260503005054 74 237 0.0 0.0 0.00 0.00 0.00 39 1020.3